Date String (YYYY-MM-DD hh:mm:ss) UTC,Instrument flags,absolute air pressure of the measurement (hPa),sample flow rate (lpm),inlet stack bypass flow (lpm),air temperature of the measurement (°C),ambient temperature measured by the external sensor (°C),aerosol sample conditioner tube jacket temperature (°C),OPC LED temperature (°C),internal box temperature (°C),relative humidity of the measurement (%),span deviation,mass concentration of particles derived from Lorenz-Mie calculation of OPC scattering (μg/m³),mass concentration of particles derived from Lorenz-Mie calculation of OPC scattering (μg/m³),mass concentration of particles derived from Lorenz-Mie calculation of OPC scattering (μg/m³)
DateTimeUTC,F1_M11,P_M11,Q1_M11,Q2_M11,T1_M11,T2_M11,T3_M11,T4_M11,T5_M11,U1_M11,ZSPAN_M11,X2_M11,X0_M11,X1_M11
2024-04-16 10:00:00,SystemResetWarning,0817.6,5.01,000.00,023.2,022.3,000.0,031.7,024.9,020.1,0000.0,0000.28,0004.06,0000.13
2024-04-16 10:01:00,SystemResetWarning,0817.7,4.99,000.00,023.2,022.3,000.0,031.7,024.9,020.2,0000.0,0000.28,0004.11,0000.13
2024-04-16 10:02:00,SystemResetWarning,0817.6,4.99,000.00,023.2,022.3,000.0,031.6,024.9,020.3,0000.0,0000.24,0004.06,0000.12
2024-04-16 10:03:00,SystemResetWarning,0817.6,5.00,000.00,023.1,022.3,000.0,031.6,024.9,020.5,0000.0,0000.24,0003.15,0000.12
2024-04-16 10:04:00,SystemResetWarning,0817.6,5.00,000.00,023.1,022.3,000.0,031.6,024.9,020.7,0000.0,0000.25,0003.72,0000.12
2024-04-16 10:05:00,SystemResetWarning,0817.7,5.00,000.00,023.1,022.3,000.0,031.6,024.9,020.8,0000.0,0000.27,0004.93,0000.12
2024-04-16 10:06:00,SystemResetWarning,0817.7,5.00,000.00,023.1,022.3,000.0,031.6,024.9,021.0,0000.0,0000.28,0003.63,0000.12
2024-04-16 10:07:00,SystemResetWarning,0817.6,5.00,000.00,023.1,022.3,000.0,031.6,024.9,021.2,0000.0,0000.31,0002.78,0000.12
2024-04-16 10:08:00,SystemResetWarning,0817.7,5.00,000.00,023.1,022.3,000.0,031.6,024.9,021.8,0000.0,0000.33,0002.82,0000.12
2024-04-16 10:09:00,SystemResetWarning,0817.8,5.00,000.00,023.1,022.3,000.0,031.6,024.9,022.2,0000.0,0000.36,0003.04,0000.12
2024-04-16 10:10:00,SystemResetWarning,0817.8,5.00,000.00,023.1,022.3,000.0,031.6,024.9,022.3,0000.0,0000.36,0003.23,0000.12
2024-04-16 10:11:00,SystemResetWarning,0817.7,4.98,000.00,023.1,022.3,000.0,031.6,024.9,022.6,0000.0,0000.38,0003.25,0000.12
2024-04-16 10:12:00,SystemResetWarning,0817.7,5.00,000.00,023.1,022.3,000.0,031.6,024.9,022.5,0000.0,0000.37,0003.15,0000.12
2024-04-16 10:13:00,SystemResetWarning,0817.6,5.01,000.00,023.1,022.3,000.0,031.6,024.9,022.3,0000.0,0000.38,0004.25,0000.12
2024-04-16 10:14:00,SystemResetWarning,0817.7,5.01,000.00,023.1,022.3,000.0,031.6,024.9,022.5,0000.0,0000.38,0004.31,0000.12
2024-04-16 10:15:00,SystemResetWarning,0817.7,4.99,000.00,023.1,022.3,000.0,031.6,024.9,022.7,0000.0,0000.38,0003.79,0000.12
2024-04-16 10:16:00,SystemResetWarning,0817.7,4.99,000.00,023.1,022.3,000.0,031.6,024.9,022.3,0000.0,0000.37,0002.96,0000.12
2024-04-16 10:17:00,SystemResetWarning,0817.7,4.99,000.00,023.1,022.3,000.0,031.6,024.9,022.3,0000.0,0000.36,0002.88,0000.12
2024-04-16 10:18:00,SystemResetWarning,0817.7,5.00,000.00,023.1,022.3,000.0,031.6,024.9,022.0,0000.0,0000.34,0002.76,0000.12
2024-04-16 10:19:00,SystemResetWarning,0817.7,5.01,000.00,023.1,022.3,000.0,031.6,024.9,021.9,0000.0,0000.32,0002.72,0000.11
2024-04-16 10:20:00,SystemResetWarning,0817.7,5.01,000.00,023.1,022.3,000.0,031.6,024.9,021.9,0000.0,0000.30,0002.64,0000.11
2024-04-16 10:21:00,SystemResetWarning,0817.7,5.01,000.00,023.1,022.3,000.0,031.6,024.9,022.4,0000.0,0000.27,0002.42,0000.11
2024-04-16 10:22:00,SystemResetWarning,0817.6,4.99,000.00,023.1,022.3,000.0,031.6,024.9,022.1,0000.0,0000.24,0002.37,0000.11
2024-04-16 10:23:00,SystemResetWarning,0817.6,4.99,000.00,023.1,022.3,000.0,031.6,024.9,021.9,0000.0,0000.23,0002.35,0000.10
2024-04-16 10:24:00,SystemResetWarning,0817.6,4.99,000.00,023.1,022.4,000.0,031.6,025.0,022.0,0000.0,0000.23,0001.17,0000.10
2024-04-16 10:25:00,SystemResetWarning,0817.6,5.01,000.00,023.1,022.4,000.0,031.6,025.0,022.3,0000.0,0000.23,0001.06,0000.10
2024-04-16 10:26:00,SystemResetWarning,0817.5,5.00,000.00,023.1,022.4,000.0,031.6,025.0,021.1,0000.0,0000.22,0001.04,0000.10
2024-04-16 10:27:00,SystemResetWarning,0817.6,4.99,000.00,023.1,022.4,000.0,031.6,025.0,021.4,0000.0,0000.21,0001.07,0000.10
2024-04-16 10:28:00,SystemResetWarning,0817.5,4.99,000.00,023.1,022.5,000.0,031.6,025.0,021.6,0000.0,0000.21,0001.00,0000.09
2024-04-16 10:29:00,SystemResetWarning,0817.5,5.00,000.00,023.2,022.5,000.0,031.6,025.0,020.3,0000.0,0000.20,0000.97,0000.09
2024-04-16 10:30:00,SystemResetWarning,0817.6,5.00,000.00,023.2,022.5,000.0,031.6,025.0,019.9,0000.0,0000.19,0000.95,0000.09
2024-04-16 10:31:00,SystemResetWarning,0817.6,5.01,000.00,023.2,022.5,000.0,031.6,025.0,020.3,0000.0,0000.18,0001.10,0000.09
2024-04-16 10:32:00,SystemResetWarning,0817.6,5.01,000.00,023.2,022.5,000.0,031.6,025.0,020.2,0000.0,0000.21,0001.82,0000.09
2024-04-16 10:33:00,SystemResetWarning,0817.6,5.01,000.00,023.2,022.6,000.0,031.6,025.0,019.7,0000.0,0000.23,0001.86,0000.09
2024-04-16 10:34:00,SystemResetWarning,0817.6,5.00,000.00,023.2,022.6,000.0,031.6,025.0,020.0,0000.0,0000.26,0001.92,0000.09
2024-04-16 10:35:00,SystemResetWarning,0817.6,4.99,000.00,023.2,022.6,000.0,031.6,025.0,020.0,0000.0,0000.25,0001.92,0000.10
2024-04-16 10:36:00,SystemResetWarning,0817.6,5.00,000.00,023.2,022.6,000.0,031.6,025.0,020.1,0000.0,0000.29,0002.03,0000.11
2024-04-16 10:37:00,SystemResetWarning,0817.7,4.99,000.00,023.2,022.6,000.0,031.6,025.0,020.2,0000.0,0000.27,0002.08,0000.10
2024-04-16 10:38:00,SystemResetWarning,0817.7,4.99,000.00,023.2,022.6,000.0,031.6,025.1,019.7,0000.0,0000.26,0001.70,0000.10
2024-04-16 10:39:00,SystemResetWarning,0817.7,5.01,000.00,023.3,022.7,000.0,031.6,025.1,020.2,0000.0,0000.28,0001.75,0000.11
2024-04-16 10:40:00,SystemResetWarning,0817.7,5.01,000.00,023.3,022.7,000.0,031.6,025.1,019.8,0000.0,0000.28,0001.90,0000.11
2024-04-16 10:41:00,SystemResetWarning,0817.7,4.99,000.00,023.3,022.7,000.0,031.6,025.1,019.6,0000.0,0000.29,0001.92,0000.11
2024-04-16 10:42:00,SystemResetWarning,0817.8,4.99,000.00,023.3,022.7,000.0,031.7,025.1,019.5,0000.0,0000.28,0001.81,0000.11
2024-04-16 10:43:00,SystemResetWarning,0817.8,5.00,000.00,023.3,022.7,000.0,031.7,025.1,018.9,0000.0,0000.26,0000.90,0000.10
2024-04-16 10:44:00,SystemResetWarning,0817.8,4.99,000.00,023.3,022.7,000.0,031.7,025.1,018.4,0000.0,0000.25,0000.99,0000.10
2024-04-16 10:45:00,SystemResetWarning,0817.7,5.01,000.00,023.3,022.7,000.0,031.7,025.1,018.7,0000.0,0000.23,0001.38,0000.10
2024-04-16 10:46:00,SystemResetWarning,0817.8,5.01,000.00,023.3,022.7,000.0,031.7,025.1,018.6,0000.0,0000.23,0001.38,0000.10
2024-04-16 10:47:00,SystemResetWarning,0817.8,5.01,000.00,023.3,022.7,000.0,031.7,025.1,018.5,0000.0,0000.19,0001.97,0000.10
2024-04-16 10:48:00,SystemResetWarning,0817.8,5.00,000.00,023.3,022.8,000.0,031.7,025.1,018.7,0000.0,0000.19,0002.08,0000.10
2024-04-16 10:49:00,SystemResetWarning,0817.8,5.00,000.00,023.3,022.8,000.0,031.7,025.2,018.7,0000.0,0000.19,0001.99,0000.10
2024-04-16 10:50:00,SystemResetWarning,0817.9,5.00,000.00,023.4,022.8,000.0,031.7,025.2,018.4,0000.0,0000.18,0001.97,0000.10
2024-04-16 10:51:00,SystemResetWarning,0818.0,4.99,000.00,023.4,022.8,000.0,031.7,025.2,018.5,0000.0,0000.18,0001.78,0000.10
2024-04-16 10:52:00,SystemResetWarning,0818.0,5.00,000.00,023.4,022.8,000.0,031.7,025.2,019.1,0000.0,0000.18,0001.77,0000.10
2024-04-16 10:53:00,SystemResetWarning,0818.0,5.00,000.00,023.4,022.8,000.0,031.7,025.2,020.9,0000.0,0000.18,0001.84,0000.10
2024-04-16 10:54:00,SystemResetWarning,0818.0,5.00,000.00,023.4,022.8,000.0,031.8,025.2,021.9,0000.0,0000.19,0001.87,0000.10
2024-04-16 10:55:00,SystemResetWarning,0818.1,4.99,000.00,023.4,022.8,000.0,031.8,025.2,022.2,0000.0,0000.21,0002.63,0000.10
2024-04-16 10:56:00,SystemResetWarning,0818.0,4.99,000.00,023.4,022.9,000.0,031.8,025.2,022.4,0000.0,0000.23,0002.41,0000.10
2024-04-16 10:57:00,SystemResetWarning,0818.0,5.00,000.00,023.4,022.9,000.0,031.8,025.2,022.6,0000.0,0000.24,0002.40,0000.10
2024-04-16 10:58:00,SystemResetWarning,0818.0,5.00,000.00,023.4,022.8,000.0,031.8,025.3,022.9,0000.0,0000.27,0001.76,0000.11
2024-04-16 10:59:00,SystemResetWarning,0818.0,5.01,000.00,023.4,022.8,000.0,031.8,025.3,022.8,0000.0,0000.30,0001.73,0000.11
